Time,TemperatureF,DewpointF,PressureIn,WindDirection,WindDirectionDegrees,WindSpeedMPH,WindSpeedGustMPH,Humidity,HourlyPrecipIn,Conditions,Clouds,dailyrainin,SolarRadiationWatts/m^2,SoftwareType,DateUTC
2017-04-25 00:02:00,53.8,41.0,30.09,ENE,71,8.0,13.0,62,0.00,,,0.00,0.0,meteohub,2017-04-25 04:02:00,
2017-04-25 00:07:00,53.8,41.5,30.09,ESE,106,4.0,12.0,63,0.00,,,0.00,0.0,meteohub,2017-04-25 04:07:00,
2017-04-25 00:12:00,53.8,41.5,30.08,ENE,63,5.0,12.0,63,0.00,,,0.00,0.0,meteohub,2017-04-25 04:12:00,
2017-04-25 00:17:00,53.8,41.9,30.08,ENE,57,7.0,13.0,64,0.00,,,0.00,0.0,meteohub,2017-04-25 04:17:00,
2017-04-25 00:22:00,53.6,42.4,30.08,ENE,63,13.0,13.0,66,0.00,,,0.00,0.0,meteohub,2017-04-25 04:22:00,
2017-04-25 00:27:00,53.4,43.5,30.08,NNE,24,7.0,14.0,69,0.00,,,0.00,0.0,meteohub,2017-04-25 04:27:00,
2017-04-25 00:32:00,53.1,43.9,30.09,East,89,9.0,16.0,71,0.00,,,0.00,0.0,meteohub,2017-04-25 04:32:00,
2017-04-25 00:37:00,52.9,44.1,30.08,ENE,76,8.0,16.0,72,0.00,,,0.00,0.0,meteohub,2017-04-25 04:37:00,
2017-04-25 00:42:00,52.5,43.7,30.08,NE,53,3.0,16.0,72,0.00,,,0.00,0.0,meteohub,2017-04-25 04:42:00,
2017-04-25 00:47:00,52.3,43.5,30.08,ENE,66,4.0,12.0,72,0.00,,,0.00,0.0,meteohub,2017-04-25 04:47:00,
2017-04-25 00:52:00,52.3,43.5,30.08,NE,56,9.0,15.0,72,0.00,,,0.00,0.0,meteohub,2017-04-25 04:52:00,
2017-04-25 00:57:00,52.3,43.5,30.08,NE,38,9.0,15.0,72,0.00,,,0.00,0.0,meteohub,2017-04-25 04:57:00,
2017-04-25 01:02:00,52.3,43.5,30.07,NE,55,3.0,15.0,72,0.00,,,0.00,0.0,meteohub,2017-04-25 05:02:00,
2017-04-25 01:07:00,52.3,43.9,30.07,NE,41,1.0,12.0,73,0.00,,,0.00,0.0,meteohub,2017-04-25 05:07:00,
2017-04-25 01:12:00,52.3,43.9,30.06,ENE,62,4.0,11.0,73,0.00,,,0.00,0.0,meteohub,2017-04-25 05:12:00,
2017-04-25 01:17:00,52.2,43.7,30.06,NE,47,2.0,11.0,73,0.00,,,0.00,0.0,meteohub,2017-04-25 05:17:00,
2017-04-25 01:22:00,52.2,43.7,30.06,NE,39,5.0,11.0,73,0.00,,,0.00,0.0,meteohub,2017-04-25 05:22:00,
2017-04-25 01:27:00,52.2,43.7,30.06,ENE,64,4.0,11.0,73,0.00,,,0.00,0.0,meteohub,2017-04-25 05:27:00,
2017-04-25 01:32:00,52.2,43.7,30.06,East,88,6.0,9.0,73,0.00,,,0.00,0.0,meteohub,2017-04-25 05:32:00,
2017-04-25 01:37:00,52.2,44.1,30.05,NE,54,8.0,12.0,74,0.00,,,0.00,0.0,meteohub,2017-04-25 05:37:00,
2017-04-25 01:42:00,52.0,43.9,30.06,NE,47,4.0,12.0,74,0.00,,,0.00,0.0,meteohub,2017-04-25 05:42:00,
2017-04-25 01:47:00,52.0,43.9,30.05,ENE,59,3.0,12.0,74,0.00,,,0.00,0.0,meteohub,2017-04-25 05:47:00,
2017-04-25 01:52:00,52.0,43.9,30.05,ENE,73,7.0,11.0,74,0.00,,,0.00,0.0,meteohub,2017-04-25 05:52:00,
2017-04-25 01:57:00,52.0,44.2,30.05,NE,48,8.0,12.0,75,0.00,,,0.00,0.0,meteohub,2017-04-25 05:57:00,
2017-04-25 02:02:00,52.0,44.2,30.05,NE,34,8.0,12.0,75,0.00,,,0.00,0.0,meteohub,2017-04-25 06:02:00,
2017-04-25 02:07:00,52.0,44.6,30.04,ENE,60,5.0,15.0,76,0.00,,,0.00,0.0,meteohub,2017-04-25 06:07:00,
2017-04-25 02:12:00,52.0,44.6,30.04,ENE,57,5.0,15.0,76,0.00,,,0.00,0.0,meteohub,2017-04-25 06:12:00,
2017-04-25 02:17:00,52.0,45.0,30.04,ENE,61,5.0,15.0,77,0.00,,,0.00,0.0,meteohub,2017-04-25 06:17:00,
2017-04-25 02:22:00,51.8,45.1,30.04,NE,49,8.0,14.0,78,0.00,,,0.00,0.0,meteohub,2017-04-25 06:22:00,
2017-04-25 02:27:00,51.6,45.0,30.04,ENE,57,4.0,14.0,78,0.00,,,0.00,0.0,meteohub,2017-04-25 06:27:00,
2017-04-25 02:32:00,51.6,45.3,30.04,ENE,59,5.0,14.0,79,0.00,,,0.00,0.0,meteohub,2017-04-25 06:32:00,
2017-04-25 02:37:00,51.6,45.7,30.04,NE,42,8.0,14.0,80,0.00,,,0.00,0.0,meteohub,2017-04-25 06:37:00,
2017-04-25 02:42:00,51.6,45.7,30.04,NE,39,5.0,14.0,80,0.00,,,0.00,0.0,meteohub,2017-04-25 06:42:00,
2017-04-25 02:47:00,51.6,46.0,30.04,NE,42,12.0,15.0,81,0.00,,,0.00,0.0,meteohub,2017-04-25 06:47:00,
2017-04-25 02:52:00,51.4,45.9,30.04,ENE,61,8.0,15.0,81,0.00,,,0.00,0.0,meteohub,2017-04-25 06:52:00,
2017-04-25 02:57:00,51.4,46.2,30.04,NE,38,4.0,15.0,82,0.00,,,0.00,0.0,meteohub,2017-04-25 06:57:00,
2017-04-25 03:02:00,51.4,46.4,30.04,NE,54,4.0,15.0,83,0.00,,,0.00,0.0,meteohub,2017-04-25 07:02:00,
2017-04-25 03:07:00,51.4,46.8,30.03,NE,36,4.0,14.0,84,0.00,,,0.00,0.0,meteohub,2017-04-25 07:07:00,
2017-04-25 03:12:00,51.4,46.8,30.03,NNE,24,8.0,14.0,84,0.00,,,0.00,0.0,meteohub,2017-04-25 07:12:00,
2017-04-25 03:17:00,51.4,46.8,30.03,ENE,61,10.0,14.0,84,0.00,,,0.00,0.0,meteohub,2017-04-25 07:17:00,
2017-04-25 03:22:00,51.4,47.1,30.03,NE,45,8.0,14.0,85,0.00,,,0.00,0.0,meteohub,2017-04-25 07:22:00,
2017-04-25 03:27:00,51.4,47.5,30.03,NE,43,5.0,17.0,86,0.00,,,0.00,0.0,meteohub,2017-04-25 07:27:00,
2017-04-25 03:32:00,51.4,47.5,30.03,NE,54,4.0,17.0,86,0.00,,,0.00,0.0,meteohub,2017-04-25 07:32:00,
2017-04-25 03:37:00,51.4,47.5,30.03,ENE,76,10.0,17.0,86,0.00,,,0.00,0.0,meteohub,2017-04-25 07:37:00,
2017-04-25 03:42:00,51.4,47.7,30.03,ENE,71,8.0,16.0,87,0.00,,,0.00,0.0,meteohub,2017-04-25 07:42:00,
2017-04-25 03:47:00,51.4,47.7,30.03,NE,55,6.0,13.0,87,0.00,,,0.00,0.0,meteohub,2017-04-25 07:47:00,
2017-04-25 03:52:00,51.4,48.0,30.03,East,82,9.0,13.0,88,0.00,,,0.00,0.0,meteohub,2017-04-25 07:52:00,
2017-04-25 03:57:00,51.4,48.0,30.03,NE,51,6.0,12.0,88,0.00,,,0.00,0.0,meteohub,2017-04-25 07:57:00,
2017-04-25 04:02:00,51.4,48.0,30.03,NE,53,7.0,12.0,88,0.00,,,0.00,0.0,meteohub,2017-04-25 08:02:00,
2017-04-25 04:07:00,51.6,48.6,30.03,ENE,61,5.0,13.0,89,0.00,,,0.00,0.0,meteohub,2017-04-25 08:07:00,
2017-04-25 04:12:00,51.6,48.6,30.03,NE,50,8.0,14.0,89,0.00,,,0.00,0.0,meteohub,2017-04-25 08:12:00,
2017-04-25 04:17:00,51.6,48.6,30.03,NE,48,2.0,15.0,89,0.00,,,0.00,0.0,meteohub,2017-04-25 08:17:00,
2017-04-25 04:22:00,51.6,48.7,30.03,NE,49,7.0,15.0,90,0.00,,,0.00,0.0,meteohub,2017-04-25 08:22:00,
2017-04-25 04:27:00,51.6,48.7,30.03,ENE,59,5.0,17.0,90,0.00,,,0.00,0.0,meteohub,2017-04-25 08:27:00,
2017-04-25 04:32:00,51.6,48.7,30.02,East,81,6.0,17.0,90,0.00,,,0.00,0.0,meteohub,2017-04-25 08:32:00,
2017-04-25 04:37:00,51.6,48.7,30.03,NE,49,5.0,17.0,90,0.00,,,0.00,0.0,meteohub,2017-04-25 08:37:00,
2017-04-25 04:42:00,51.6,49.1,30.03,NE,44,6.0,14.0,91,0.00,,,0.00,0.0,meteohub,2017-04-25 08:42:00,
2017-04-25 04:47:00,51.6,49.5,30.02,NE,49,5.0,14.0,92,0.00,,,0.00,0.0,meteohub,2017-04-25 08:47:00,
2017-04-25 04:52:00,51.6,49.5,30.02,ENE,65,9.0,14.0,92,0.00,,,0.00,0.0,meteohub,2017-04-25 08:52:00,
2017-04-25 04:57:00,51.6,49.5,30.02,ENE,67,5.0,13.0,92,0.00,,,0.00,0.0,meteohub,2017-04-25 08:57:00,
2017-04-25 05:02:00,51.4,49.5,30.02,ENE,59,9.0,12.0,93,0.00,,,0.00,0.0,meteohub,2017-04-25 09:02:00,
2017-04-25 05:07:00,51.4,49.5,30.03,ESE,110,7.0,11.0,93,0.00,,,0.00,0.0,meteohub,2017-04-25 09:07:00,
2017-04-25 05:12:00,51.4,49.5,30.03,ENE,68,0.0,11.0,93,0.00,,,0.00,0.0,meteohub,2017-04-25 09:12:00,
2017-04-25 05:17:00,51.4,49.8,30.04,SE,129,5.0,11.0,94,0.00,,,0.00,0.0,meteohub,2017-04-25 09:17:00,
2017-04-25 05:22:00,51.4,49.8,30.03,ESE,113,1.0,11.0,94,0.00,,,0.00,0.0,meteohub,2017-04-25 09:22:00,
2017-04-25 05:27:00,51.4,49.8,30.03,ESE,107,4.0,7.0,94,0.01,,,0.01,0.0,meteohub,2017-04-25 09:27:00,
2017-04-25 05:32:00,51.4,49.8,30.02,ENE,71,7.0,9.0,94,0.02,,,0.02,0.0,meteohub,2017-04-25 09:32:00,
2017-04-25 05:37:00,51.6,50.0,30.02,NE,46,8.0,11.0,94,0.02,,,0.02,0.0,meteohub,2017-04-25 09:37:00,
2017-04-25 05:42:00,51.6,50.2,30.02,ENE,71,5.0,12.0,95,0.02,,,0.02,0.0,meteohub,2017-04-25 09:42:00,
2017-04-25 05:47:00,51.6,50.2,30.02,NNE,32,5.0,13.0,95,0.03,,,0.03,0.0,meteohub,2017-04-25 09:47:00,
2017-04-25 05:52:00,51.6,50.2,30.02,East,89,8.0,13.0,95,0.03,,,0.03,0.0,meteohub,2017-04-25 09:52:00,
2017-04-25 05:57:00,51.6,50.2,30.02,NNE,27,6.0,13.0,95,0.04,,,0.04,0.0,meteohub,2017-04-25 09:57:00,
2017-04-25 06:02:00,51.6,50.2,30.02,ENE,61,15.0,15.0,95,0.04,,,0.04,0.0,meteohub,2017-04-25 10:02:00,
2017-04-25 06:07:00,51.6,50.2,30.02,ENE,70,10.0,16.0,95,0.04,,,0.04,0.0,meteohub,2017-04-25 10:07:00,
2017-04-25 06:12:00,51.6,50.2,30.02,NE,53,5.0,17.0,95,0.04,,,0.04,0.0,meteohub,2017-04-25 10:12:00,
2017-04-25 06:17:00,51.6,50.5,30.01,NE,41,6.0,17.0,96,0.04,,,0.04,0.0,meteohub,2017-04-25 10:17:00,
2017-04-25 06:22:00,51.6,50.5,30.01,NNE,33,7.0,17.0,96,0.04,,,0.04,0.0,meteohub,2017-04-25 10:22:00,
2017-04-25 06:27:00,51.4,50.4,30.01,NE,49,8.0,16.0,96,0.02,,,0.04,0.0,meteohub,2017-04-25 10:27:00,
2017-04-25 06:32:00,51.4,50.4,30.02,ENE,73,9.0,16.0,96,0.02,,,0.04,0.0,meteohub,2017-04-25 10:32:00,
2017-04-25 06:37:00,51.3,49.8,30.02,NE,46,12.0,16.0,95,0.02,,,0.04,5.0,meteohub,2017-04-25 10:37:00,
2017-04-25 06:42:00,51.1,49.6,30.02,NE,42,3.0,18.0,95,0.02,,,0.04,5.0,meteohub,2017-04-25 10:42:00,
2017-04-25 06:47:00,51.1,49.6,30.03,ENE,69,14.0,19.0,95,0.01,,,0.04,5.0,meteohub,2017-04-25 10:47:00,
2017-04-25 06:52:00,50.9,49.8,30.03,ENE,59,10.0,19.0,96,0.01,,,0.04,5.0,meteohub,2017-04-25 10:52:00,
2017-04-25 06:57:00,50.9,49.8,30.03,ENE,57,13.0,19.0,96,0.00,,,0.04,9.0,meteohub,2017-04-25 10:57:00,
2017-04-25 07:02:00,50.7,49.3,30.03,NE,53,4.0,20.0,95,0.00,,,0.04,11.0,meteohub,2017-04-25 11:02:00,
2017-04-25 07:07:00,50.7,49.6,30.03,NE,45,3.0,20.0,96,0.00,,,0.04,11.0,meteohub,2017-04-25 11:07:00,
2017-04-25 07:12:00,50.7,49.6,30.03,ENE,63,13.0,20.0,96,0.00,,,0.04,12.0,meteohub,2017-04-25 11:12:00,
2017-04-25 07:17:00,50.7,49.6,30.04,NE,46,6.0,17.0,96,0.00,,,0.04,16.0,meteohub,2017-04-25 11:17:00,
2017-04-25 07:22:00,50.7,49.6,30.04,NE,47,9.0,17.0,96,0.00,,,0.04,19.0,meteohub,2017-04-25 11:22:00,
2017-04-25 07:27:00,50.7,49.6,30.04,NE,44,6.0,16.0,96,0.00,,,0.04,23.0,meteohub,2017-04-25 11:27:00,
2017-04-25 07:32:00,50.7,49.6,30.03,ENE,67,9.0,17.0,96,0.00,,,0.04,37.0,meteohub,2017-04-25 11:32:00,
2017-04-25 07:37:00,50.7,49.6,30.03,NNE,30,9.0,17.0,96,0.00,,,0.04,39.0,meteohub,2017-04-25 11:37:00,
2017-04-25 07:42:00,50.7,49.6,30.03,ENE,65,11.0,17.0,96,0.00,,,0.04,42.0,meteohub,2017-04-25 11:42:00,
2017-04-25 07:47:00,50.9,49.8,30.03,ENE,57,8.0,19.0,96,0.00,,,0.04,42.0,meteohub,2017-04-25 11:47:00,
2017-04-25 07:52:00,50.9,49.8,30.03,NE,34,9.0,19.0,96,0.00,,,0.04,39.0,meteohub,2017-04-25 11:52:00,
2017-04-25 07:57:00,50.9,49.8,30.03,NE,34,6.0,17.0,96,0.00,,,0.04,33.0,meteohub,2017-04-25 11:57:00,
2017-04-25 08:02:00,50.9,49.8,30.03,East,82,8.0,16.0,96,0.00,,,0.04,35.0,meteohub,2017-04-25 12:02:00,
2017-04-25 08:07:00,50.9,49.8,30.03,NE,54,11.0,16.0,96,0.00,,,0.04,35.0,meteohub,2017-04-25 12:07:00,
2017-04-25 08:12:00,50.9,49.8,30.04,ENE,57,4.0,19.0,96,0.00,,,0.04,28.0,meteohub,2017-04-25 12:12:00,
2017-04-25 08:17:00,50.9,49.8,30.03,NE,42,11.0,19.0,96,0.00,,,0.04,30.0,meteohub,2017-04-25 12:17:00,
2017-04-25 08:22:00,50.9,49.8,30.03,NE,50,12.0,19.0,96,0.00,,,0.04,30.0,meteohub,2017-04-25 12:22:00,
2017-04-25 08:27:00,50.9,50.0,30.03,NE,48,15.0,18.0,97,0.00,,,0.04,33.0,meteohub,2017-04-25 12:27:00,
2017-04-25 08:32:00,51.1,50.2,30.03,NE,55,8.0,19.0,97,0.00,,,0.04,39.0,meteohub,2017-04-25 12:32:00,
2017-04-25 08:37:00,51.1,50.2,30.03,NE,39,9.0,19.0,97,0.00,,,0.04,42.0,meteohub,2017-04-25 12:37:00,
2017-04-25 08:42:00,51.1,50.2,30.03,NE,53,11.0,22.0,97,0.00,,,0.04,51.0,meteohub,2017-04-25 12:42:00,
2017-04-25 08:47:00,51.1,50.2,30.03,NE,51,10.0,22.0,97,0.00,,,0.04,49.0,meteohub,2017-04-25 12:47:00,
2017-04-25 08:52:00,51.1,50.2,30.03,ENE,78,7.0,22.0,97,0.00,,,0.04,53.0,meteohub,2017-04-25 12:52:00,
2017-04-25 08:57:00,51.1,50.2,30.03,NE,40,9.0,22.0,97,0.00,,,0.04,51.0,meteohub,2017-04-25 12:57:00,
2017-04-25 09:02:00,51.3,50.4,30.04,NE,42,3.0,22.0,97,0.00,,,0.04,49.0,meteohub,2017-04-25 13:02:00,
2017-04-25 09:07:00,51.3,50.4,30.04,East,84,11.0,19.0,97,0.00,,,0.04,46.0,meteohub,2017-04-25 13:07:00,
2017-04-25 09:12:00,51.3,50.4,30.04,ENE,76,4.0,19.0,97,0.00,,,0.04,46.0,meteohub,2017-04-25 13:12:00,
2017-04-25 09:17:00,51.3,50.4,30.04,NE,44,9.0,19.0,97,0.00,,,0.04,51.0,meteohub,2017-04-25 13:17:00,
2017-04-25 09:22:00,51.3,50.4,30.04,NE,44,8.0,19.0,97,0.00,,,0.04,69.0,meteohub,2017-04-25 13:22:00,
2017-04-25 09:27:00,51.4,50.5,30.04,ENE,68,13.0,19.0,97,0.00,,,0.04,62.0,meteohub,2017-04-25 13:27:00,
2017-04-25 09:32:00,51.4,50.5,30.04,NE,51,15.0,18.0,97,0.00,,,0.04,69.0,meteohub,2017-04-25 13:32:00,
2017-04-25 09:37:00,51.4,50.5,30.03,NE,45,10.0,18.0,97,0.00,,,0.04,67.0,meteohub,2017-04-25 13:37:00,
2017-04-25 09:42:00,51.6,50.7,30.03,NE,38,7.0,19.0,97,0.00,,,0.04,76.0,meteohub,2017-04-25 13:42:00,
2017-04-25 09:47:00,51.6,50.7,30.03,East,90,9.0,21.0,97,0.00,,,0.04,76.0,meteohub,2017-04-25 13:47:00,
2017-04-25 09:52:00,51.6,50.7,30.03,ENE,76,14.0,21.0,97,0.00,,,0.04,77.0,meteohub,2017-04-25 13:52:00,
2017-04-25 09:57:00,51.8,50.9,30.02,NE,55,8.0,21.0,97,0.00,,,0.04,105.0,meteohub,2017-04-25 13:57:00,
2017-04-25 10:02:00,52.0,51.1,30.02,ENE,57,13.0,20.0,97,0.00,,,0.04,67.0,meteohub,2017-04-25 14:02:00,
2017-04-25 10:07:00,52.0,51.1,30.02,NNE,30,10.0,18.0,97,0.00,,,0.04,70.0,meteohub,2017-04-25 14:07:00,
2017-04-25 10:12:00,52.0,51.1,30.03,NE,43,2.0,16.0,97,0.00,,,0.04,42.0,meteohub,2017-04-25 14:12:00,
2017-04-25 10:17:00,52.0,51.1,30.03,East,80,3.0,21.0,97,0.00,,,0.04,44.0,meteohub,2017-04-25 14:17:00,
2017-04-25 10:22:00,52.0,51.1,30.03,NE,40,9.0,21.0,97,0.00,,,0.04,49.0,meteohub,2017-04-25 14:22:00,
2017-04-25 10:27:00,52.2,51.6,30.03,East,92,7.0,21.0,98,0.00,,,0.04,51.0,meteohub,2017-04-25 14:27:00,
2017-04-25 10:32:00,52.2,51.3,30.04,East,88,5.0,16.0,97,0.00,,,0.04,33.0,meteohub,2017-04-25 14:32:00,
2017-04-25 10:37:00,52.2,51.6,30.04,NE,49,7.0,17.0,98,0.00,,,0.04,53.0,meteohub,2017-04-25 14:37:00,
2017-04-25 10:42:00,52.3,51.8,30.03,ENE,75,14.0,17.0,98,0.04,,,0.08,111.0,meteohub,2017-04-25 14:42:00,
2017-04-25 10:47:00,52.3,51.8,30.03,ENE,60,9.0,19.0,98,0.06,,,0.10,178.0,meteohub,2017-04-25 14:47:00,
2017-04-25 10:52:00,52.7,52.2,30.03,NE,46,14.0,19.0,98,0.06,,,0.10,179.0,meteohub,2017-04-25 14:52:00,
2017-04-25 10:57:00,53.1,52.5,30.03,ENE,71,12.0,19.0,98,0.06,,,0.10,176.0,meteohub,2017-04-25 14:57:00,
2017-04-25 11:02:00,53.1,52.5,30.02,ENE,71,9.0,18.0,98,0.06,,,0.10,218.0,meteohub,2017-04-25 15:02:00,
2017-04-25 11:07:00,53.2,52.7,30.01,ENE,68,23.0,23.0,98,0.06,,,0.10,281.0,meteohub,2017-04-25 15:07:00,
2017-04-25 11:11:00,53.4,52.9,30.01,ENE,65,11.0,23.0,98,0.06,,,0.10,132.0,meteohub,2017-04-25 15:11:00,
2017-04-25 11:17:00,53.4,52.9,30.01,East,80,15.0,23.0,98,0.06,,,0.10,169.0,meteohub,2017-04-25 15:17:00,
2017-04-25 11:21:00,53.4,52.9,30.01,NE,47,4.0,23.0,98,0.06,,,0.10,130.0,meteohub,2017-04-25 15:21:00,
2017-04-25 11:27:00,53.4,52.9,30.01,East,86,18.0,22.0,98,0.06,,,0.10,79.0,meteohub,2017-04-25 15:27:00,
2017-04-25 11:32:00,53.2,52.3,30.00,NE,46,15.0,22.0,97,0.06,,,0.10,114.0,meteohub,2017-04-25 15:32:00,